Weather History for 83755 - September, 2013

Change the Weather History Date:

Wednesday, September 25, 2013

  Actual Average Record
Temperature  
Mean Temperature 70 °F -  
Max Temperature 73 °F 78 °F - ()
Min Temperature 64 °F 68 °F - ()
Cooling Degree Days 4    
Growing Degree Days 20 (Base 50)    
Moisture  
Dew Point 55 °F    
Average Humidity 62    
Maximum Humidity 83    
Minimum Humidity 47    
Precipitation  
Precipitation 0.00 in - - ()
Sea Level Pressure  
Sea Level Pressure 30.04 in    
Wind  
Wind Speed 9 mph ()    
Max Wind Speed 23 mph    
Max Gust Speed 34 mph    
Visibility 6.0 miles    
Events      
T = Trace of Precipitation, MM = Missing Value Source: Averaged Metar Reports

Daily Weather History Graph

Daily Weather History Graph

Search for Another Location

Airport or City:

Trip Planner

Search our weather history database for the weather conditions in past years. The results will help you decide how hot, cold, wet, or windy it might be!

Date:

Astronomy

Sep. 25, 2013 Rise Set
Actual Time 5:39 AM BRT 5:49 PM BRT
Civil Twilight 5:16 AM BRT 6:12 PM BRT
Nautical Twilight 4:50 AM BRT 6:38 PM BRT
Astronomical Twilight 4:24 AM BRT 7:04 PM BRT
Moon 11:32 PM BRT (9/25) 9:55 AM BRT (9/25)
Length of Visible Light 12h 55m
Length of Day
12h 10m
Waning Gibbous, 64% of the Moon is Illuminated
Sep 25
Waning Gibbous
Sep 27
Last Quarter
Oct 4
New
Oct 11
First Quarter
Oct 18
Full

Hourly Weather History & Observations

Time (BRT) Temp. Dew Point Humidity Pressure Visibility Wind Dir Wind Speed Gust Speed Precip Events Conditions
5:40 AM 66.2 °F 57.2 °F 73% 29.95 in 4.3 mi SW 12.7 mph - N/A   Overcast
6:00 AM 66.2 °F 55.4 °F 68% 29.98 in 4.3 mi WSW 5.8 mph - N/A   Overcast
7:00 AM 68.0 °F 55.4 °F 64% 30.01 in 6.2 mi SW 9.2 mph - N/A   Overcast
8:00 AM 68.0 °F 53.6 °F 60% 30.01 in 6.2 mi WSW 5.8 mph - N/A   Overcast
9:00 AM 68.0 °F 51.8 °F 56% 30.04 in 6.2 mi WSW 8.1 mph - N/A   Overcast
10:00 AM 69.8 °F 53.6 °F 56% 30.04 in 6.2 mi WSW 15.0 mph 31.1 mph N/A   Mostly Cloudy
11:00 AM 69.8 °F 53.6 °F 56% 30.06 in 6.2 mi WSW 23.0 mph - N/A   Mostly Cloudy
12:00 PM 71.6 °F 53.6 °F 53% 30.04 in 6.2 mi WSW 20.7 mph 34.5 mph N/A   Mostly Cloudy
1:00 PM 73.4 °F 51.8 °F 47% 30.04 in 6.2 mi West 13.8 mph 31.1 mph N/A   Scattered Clouds
2:00 PM 73.4 °F 55.4 °F 53% 30.04 in 6.2 mi West 15.0 mph 32.2 mph N/A   Scattered Clouds
3:00 PM 73.4 °F 55.4 °F 53% 30.01 in 6.2 mi SW 11.5 mph - N/A   Scattered Clouds
4:00 PM 71.6 °F 55.4 °F 57% 30.04 in 6.2 mi WSW 13.8 mph 25.3 mph N/A   Scattered Clouds
5:00 PM 69.8 °F 55.4 °F 60% 30.04 in 6.2 mi WSW 11.5 mph - N/A   Scattered Clouds
6:00 PM 68.0 °F 55.4 °F 64% 30.06 in 6.2 mi West 9.2 mph - N/A   Scattered Clouds
7:00 PM 68.0 °F 57.2 °F 68% 30.06 in 6.2 mi SW 2.3 mph - N/A   Scattered Clouds
8:00 PM 68.0 °F 55.4 °F 64% 30.09 in 6.2 mi South 5.8 mph - N/A   Partly Cloudy
9:00 PM 68.0 °F 57.2 °F 68% 30.09 in 6.2 mi West 5.8 mph - N/A   Partly Cloudy
10:00 PM 68.0 °F 57.2 °F 68% 30.09 in 6.2 mi SW 10.4 mph - N/A   Partly Cloudy
11:00 PM 64.4 °F 59.0 °F 83% 30.12 in 6.2 mi WSW 2.3 mph - N/A   Mostly Cloudy